Terminal Aerodrome Forecast
Issued by NWS

Home | Current Version | Previous Version | Graphics & Text | Print | Product List | Glossary On
Versions: 1 2 3 4 5 6 7 8 9 10 11 12 13 14 15 16 17 18 19 20 21 22 23
000
FTUS43 KABR 170900 AAA
TAFMBG
TAF AMD
KMBG 170907Z 1709/1806 32016KT P6SM OVC025
     FM171600 34014KT P6SM SCT040
     FM180100 03006KT P6SM SKC=

USA.gov is the U.S. government's official web portal to all federal, state and local government web resources and services.